Flag for Costa Rica Weather past 2 weeks in Alajuela, Costa Rica

Now
75 °F

Sunny.


Feels Like: 78 °F
Forecast: 67 / 77 °F
Wind: 16 mph from East

Location: Juan Santamaria

Current Time: Jan 27, 2015 at 9:31:09 AM

Latest Report: Jan 27, 2015 at 9:00 AM


Visibility: 10 mi

Pressure: 30.07 "Hg

Humidity: 54%

Dew point: 57 °F

Location of AlajuelaLocation

Historic Weather in Alajuela — Graph

°F

Alajuela temperature yesterday

Maximum temperature yesterday: 81 °F (at 12:00 PM)
Minimum temperature yesterday: 66 °F (at 2:00 AM)
Average temperature yesterday: 71 °F

Past Weeks' High & Low Weather Summary

 TemperatureHumidityPressure
High86 °F (Jan 15, 2:00 PM)88% (Jan 15, 7:00 PM)30.11 "Hg (Jan 15, 7:00 PM)
Low64 °F (Jan 23, 5:00 AM)28% (Jan 21, 12:00 PM)29.92 "Hg (Jan 12, 3:00 PM)
Average73 °F61%30.02 "Hg
* Reported Jan 12 8:00 AM — Jan 27 8:00 AM, Alajuela, Weather by CustomWeather, © 2014

Note: Actual official high and low records may vary slightly from our data, if they occured in-between our weather recording intervals... More about our weather records

Advertising

Alajuela weather history for previous 24 hours

 ConditionsComfort  
Time TempWeatherWind HumidityBarometerVisibility
8:00 AM
Jan 27
73 °FSunny.13 mph53%30.07 "Hg10 mi
7:00 AM68 °FSunny.13 mph64%30.06 "Hg10 mi
6:00 AM66 °FSunny.15 mph68%30.03 "Hg10 mi
5:00 AM66 °FClear.14 mph68%30.02 "Hg10 mi
4:00 AM68 °FClear.12 mph64%30.01 "Hg10 mi
3:00 AM68 °FClear.16 mph64%30.00 "Hg10 mi
2:00 AM68 °FClear.13 mph64%30.01 "Hg10 mi
1:00 AM68 °FClear.12 mph69%30.02 "Hg10 mi
12:00 AM66 °FPassing clouds.8 mph73%30.04 "HgN/A
11:00 PM
Jan 26
66 °FPassing clouds.10 mph73%30.05 "HgN/A
10:00 PM68 °FClear.15 mph69%30.04 "Hg10 mi
9:00 PM68 °FPassing clouds.15 mph69%30.05 "HgN/A
8:00 PM70 °FPassing clouds.16 mph60%30.02 "HgN/A
5:00 PM73 °FPassing clouds.17 mph61%29.97 "HgN/A
4:00 PM75 °FPassing clouds.14 mph54%29.96 "HgN/A
3:00 PM77 °FPassing clouds.17 mph44%29.96 "HgN/A
2:00 PM79 °FPassing clouds.17 mph42%29.98 "HgN/A
1:00 PM79 °FPassing clouds.20 mph45%29.99 "HgN/A
12:00 PM81 °FPassing clouds.18 mph45%30.01 "HgN/A
11:00 AM77 °FPassing clouds.18 mph51%30.03 "HgN/A
10:00 AM77 °FPassing clouds.17 mph47%30.04 "HgN/A
9:00 AM75 °FSunny.13 mph50%30.05 "Hg10 mi
Weather by CustomWeather, © 2014

See weather overviewHow to use our weather pages